• în România
  • Lista ţărilor
  • Pe 7 zile
  • Temperatura apei
  • Hartă satelitară
  • Meteo pe hartă
  • Widget-uri
  • user-avatar
    Intrare

    Meteo pe oră la Lubango

    Astăzi, 23 Septembrie, Sâmbătă

    Timp Temperatura Precipitaţii Vânt Presiune Umiditate
    00:00 +16°C° 0 mm 1 m/s 609 mmHg 59%
    01:00 +16°C° 0 mm 1 m/s 609 mmHg 60%
    02:00 +15°C° 0 mm 1 m/s 609 mmHg 60%
    03:00 +15°C° 0 mm 1 m/s 608 mmHg 61%
    04:00 +15°C° 0 mm 1 m/s 608 mmHg 61%
    05:00 +16°C° 0 mm 1 m/s 609 mmHg 57%
    06:00 +18°C° 0 mm 1 m/s 609 mmHg 53%
    07:00 +20°C° 0 mm 1 m/s 610 mmHg 44%
    08:00 +23°C° 0 mm 2 m/s 612 mmHg 36%
    09:00 +26°C° 0 mm 3 m/s 613 mmHg 28%
    10:00 +29°C° 0 mm 5 m/s 614 mmHg 20%
    11:00 +32°C° 0 mm 4 m/s 614 mmHg 18%
    12:00 +33°C° 0 mm 4 m/s 614 mmHg 16%
    13:00 +34°C° 0 mm 4 m/s 614 mmHg 14%
    14:00 +33°C° 0 mm 4 m/s 613 mmHg 16%
    15:00 +32°C° 0 mm 4 m/s 612 mmHg 18%
    16:00 +30°C° 0 mm 4 m/s 612 mmHg 20%
    17:00 +27°C° 0 mm 3 m/s 611 mmHg 31%
    18:00 +24°C° 0 mm 3 m/s 610 mmHg 42%
    19:00 +19°C° 0 mm 2 m/s 610 mmHg 53%
    20:00 +18°C° 0 mm 2 m/s 610 mmHg 57%
    21:00 +18°C° 0 mm 1 m/s 610 mmHg 61%
    22:00 +16°C° 0 mm 1 m/s 610 mmHg 65%
    23:00 +16°C° 0 mm 1 m/s 610 mmHg 66%

    Mâine, 24 Septembrie, Duminică

    Timp Temperatura Precipitaţii Vânt Presiune Umiditate
    00:00 +16°C° 0 mm 1 m/s 610 mmHg 67%
    01:00 +15°C° 0 mm 1 m/s 609 mmHg 67%
    02:00 +14°C° 0 mm 0 m/s 609 mmHg 68%
    03:00 +13°C° 0 mm 0 m/s 609 mmHg 68%
    04:00 +13°C° 0 mm 0 m/s 609 mmHg 69%
    05:00 +14°C° 0 mm 0 m/s 609 mmHg 63%
    06:00 +15°C° 0 mm 0 m/s 610 mmHg 58%
    07:00 +16°C° 0 mm 0 m/s 611 mmHg 52%
    08:00 +22°C° 0 mm 1 m/s 612 mmHg 42%
    09:00 +25°C° 0 mm 2 m/s 613 mmHg 33%
    10:00 +28°C° 0 mm 3 m/s 614 mmHg 23%
    11:00 +30°C° 0 mm 3 m/s 614 mmHg 21%
    12:00 +31°C° 0 mm 3 m/s 614 mmHg 19%
    13:00 +33°C° 0 mm 4 m/s 613 mmHg 18%
    14:00 +32°C° 0 mm 4 m/s 613 mmHg 20%
    15:00 +30°C° 0 mm 3 m/s 612 mmHg 22%
    16:00 +30°C° 0 mm 3 m/s 611 mmHg 24%
    17:00 +26°C° 0 mm 3 m/s 610 mmHg 35%
    18:00 +22°C° 0 mm 3 m/s 610 mmHg 46%
    19:00 +19°C° 0 mm 3 m/s 609 mmHg 58%
    20:00 +18°C° 0 mm 2 m/s 609 mmHg 63%
    21:00 +17°C° 0 mm 2 m/s 610 mmHg 68%
    22:00 +16°C° 0 mm 1 m/s 610 mmHg 73%
    23:00 +15°C° 0 mm 1 m/s 609 mmHg 75%

    Poimâine, 25 Septembrie, Luni

    Timp Temperatura Precipitaţii Vânt Presiune Umiditate
    00:00 +14°C° 0 mm 1 m/s 609 mmHg 77%
    01:00 +14°C° 0 mm 1 m/s 608 mmHg 79%
    02:00 +13°C° 0 mm 1 m/s 608 mmHg 79%
    03:00 +13°C° 0 mm 1 m/s 608 mmHg 79%
    04:00 +13°C° 0 mm 1 m/s 607 mmHg 79%
    05:00 +14°C° 0 mm 1 m/s 608 mmHg 73%
    06:00 +15°C° 0 mm 1 m/s 609 mmHg 67%
    07:00 +16°C° 0 mm 1 m/s 610 mmHg 62%
    08:00 +19°C° 0 mm 2 m/s 611 mmHg 50%
    09:00 +23°C° 0 mm 2 m/s 612 mmHg 39%
    10:00 +26°C° 0 mm 3 m/s 613 mmHg 27%
    11:00 +27°C° 0 mm 3 m/s 613 mmHg 25%
    12:00 +29°C° 0 mm 3 m/s 613 mmHg 23%
    13:00 +30°C° 0 mm 3 m/s 612 mmHg 20%
    14:00 +29°C° 0 mm 4 m/s 612 mmHg 23%
    15:00 +28°C° 0 mm 4 m/s 611 mmHg 25%
    16:00 +28°C° 0 mm 4 m/s 610 mmHg 28%
    17:00 +25°C° 0 mm 4 m/s 609 mmHg 39%
    18:00 +21°C° 0 mm 3 m/s 609 mmHg 50%
    19:00 +17°C° 0 mm 2 m/s 608 mmHg 61%
    20:00 +16°C° 0 mm 2 m/s 608 mmHg 66%
    21:00 +15°C° 0 mm 1 m/s 608 mmHg 71%
    22:00 +14°C° 0 mm 1 m/s 608 mmHg 76%
    23:00 +14°C° 0 mm 1 m/s 608 mmHg 76%

    26 Septembrie, Marţi

    Timp Temperatura Precipitaţii Vânt Presiune Umiditate
    00:00 +14°C° 0 mm 1 m/s 607 mmHg 76%
    01:00 +13°C° 0 mm 1 m/s 607 mmHg 76%
    02:00 +13°C° 0 mm 1 m/s 607 mmHg 77%
    03:00 +13°C° 0 mm 1 m/s 606 mmHg 77%
    04:00 +12°C° 0 mm 1 m/s 606 mmHg 78%
    05:00 +13°C° 0 mm 1 m/s 607 mmHg 72%
    06:00 +14°C° 0 mm 1 m/s 608 mmHg 67%
    07:00 +15°C° 0 mm 1 m/s 609 mmHg 62%
    08:00 +20°C° 0 mm 1 m/s 610 mmHg 50%
    09:00 +23°C° 0 mm 1 m/s 611 mmHg 39%
    10:00 +26°C° 0 mm 2 m/s 612 mmHg 28%
    11:00 +27°C° 0 mm 2 m/s 612 mmHg 25%
    12:00 +29°C° 0 mm 2 m/s 612 mmHg 23%
    13:00 +30°C° 0 mm 3 m/s 612 mmHg 20%
    14:00 +29°C° 0 mm 3 m/s 611 mmHg 24%
    15:00 +28°C° 0 mm 4 m/s 610 mmHg 27%
    16:00 +27°C° 0 mm 4 m/s 610 mmHg 30%
    17:00 +24°C° 0 mm 3 m/s 609 mmHg 40%
    18:00 +20°C° 0 mm 3 m/s 609 mmHg 51%
    19:00 +17°C° 0 mm 2 m/s 608 mmHg 61%
    20:00 +16°C° 0 mm 2 m/s 608 mmHg 66%
    21:00 +15°C° 0 mm 1 m/s 608 mmHg 70%
    22:00 +14°C° 0 mm 1 m/s 608 mmHg 75%
    23:00 +14°C° 0 mm 1 m/s 608 mmHg 76%

    27 Septembrie, Miercuri

    Timp Temperatura Precipitaţii Vânt Presiune Umiditate
    00:00 +13°C° 0 mm 1 m/s 607 mmHg 78%
    01:00 +13°C° 0 mm 1 m/s 607 mmHg 79%
    02:00 +12°C° 0 mm 1 m/s 607 mmHg 79%
    03:00 +12°C° 0 mm 1 m/s 606 mmHg 80%
    04:00 +12°C° 0 mm 1 m/s 606 mmHg 81%
    05:00 +13°C° 0 mm 1 m/s 607 mmHg 74%
    06:00 +13°C° 0 mm 0 m/s 608 mmHg 68%
    07:00 +14°C° 0 mm 0 m/s 609 mmHg 62%
    08:00 +19°C° 0 mm 1 m/s 610 mmHg 50%
    09:00 +22°C° 0 mm 1 m/s 612 mmHg 38%
    10:00 +26°C° 0 mm 2 m/s 613 mmHg 26%
    11:00 +27°C° 0 mm 2 m/s 613 mmHg 23%
    12:00 +29°C° 0 mm 2 m/s 613 mmHg 21%
    13:00 +30°C° 0 mm 2 m/s 612 mmHg 18%
    14:00 +29°C° 0 mm 3 m/s 612 mmHg 20%
    15:00 +29°C° 0 mm 3 m/s 611 mmHg 23%
    16:00 +28°C° 0 mm 4 m/s 610 mmHg 25%
    17:00 +25°C° 0 mm 3 m/s 610 mmHg 35%
    18:00 +21°C° 0 mm 3 m/s 609 mmHg 45%
    19:00 +18°C° 0 mm 2 m/s 609 mmHg 56%
    20:00 +17°C° 0 mm 2 m/s 609 mmHg 61%
    21:00 +16°C° 0 mm 2 m/s 609 mmHg 66%
    22:00 +15°C° 0 mm 1 m/s 609 mmHg 72%
    23:00 +14°C° 0 mm 1 m/s 608 mmHg 74%

    28 Septembrie, Joi

    Timp Temperatura Precipitaţii Vânt Presiune Umiditate
    00:00 +14°C° 0 mm 1 m/s 608 mmHg 75%
    01:00 +13°C° 0 mm 1 m/s 608 mmHg 77%
    02:00 +13°C° 0 mm 1 m/s 607 mmHg 77%
    03:00 +13°C° 0 mm 1 m/s 607 mmHg 77%
    04:00 +11°C° 0 mm 0 m/s 607 mmHg 77%
    05:00 +12°C° 0 mm 0 m/s 608 mmHg 70%
    06:00 +14°C° 0 mm 0 m/s 609 mmHg 62%
    07:00 +15°C° 0 mm 0 m/s 610 mmHg 55%
    08:00 +20°C° 0 mm 1 m/s 611 mmHg 43%
    09:00 +24°C° 0 mm 2 m/s 613 mmHg 32%
    10:00 +27°C° 0 mm 3 m/s 614 mmHg 20%
    11:00 +29°C° 0 mm 3 m/s 614 mmHg 19%
    12:00 +30°C° 0 mm 3 m/s 613 mmHg 17%
    13:00 +31°C° 0 mm 3 m/s 613 mmHg 16%
    14:00 +30°C° 0 mm 4 m/s 612 mmHg 18%
    15:00 +29°C° 0 mm 4 m/s 612 mmHg 20%
    16:00 +28°C° 0 mm 4 m/s 611 mmHg 22%
    17:00 +25°C° 0 mm 4 m/s 610 mmHg 31%
    18:00 +21°C° 0 mm 3 m/s 610 mmHg 40%
    19:00 +19°C° 0 mm 2 m/s 609 mmHg 48%
    20:00 +17°C° 0 mm 2 m/s 609 mmHg 53%
    21:00 +16°C° 0 mm 1 m/s 609 mmHg 58%
    22:00 +15°C° 0 mm 1 m/s 609 mmHg 62%
    23:00 +15°C° 0 mm 1 m/s 609 mmHg 63%
    Arată mai mult